Location: Abraham Lincoln Continuation High School
(33.9711°N, 117.3662°W)
Time: 05:07:21
(UTC+00:00)

SJ 16-02 - Pass Details

Date: 21 September 2020
Orbit: 606 x 616 km, 75.0° (Epoch: 25 October)

Event Time Altitude Azimuth Distance (km) Brightness Sun altitude
Rises 11:01:08 0° 359° (N) 2,873 5.1 -32.2°
Reaches altitude 10° 11:03:45 10° 13° (NNE) 1,967 4.3 -31.7°
Maximum altitude 11:07:18 24° 67° (ENE) 1,285 3.6 -31.0°
Drops below altitude 10° 11:10:50 10° 122° (ESE) 1,962 4.3 -30.3°
Sets 11:13:26 0° 136° (SE) 2,864 5.0 -29.9°
